Location: Unspecified
(47.6579°N, 23.5637°E)
Time: 02:46:55
(UTC+02:00)

Envisat - Pass Details

Date: 07 December 2021
Orbit: 764 x 766 km, 98.2° (Epoch: 17 January)

Event Time Altitude Azimuth Distance (km) Brightness Sun altitude
Rises 04:00:30 0° 31° (NNE) 3,243 6.7 -39.3°
Reaches altitude 10° 04:04:04 10° 57° (ENE) 2,309 6.1 -38.7°
Maximum altitude 04:06:35 14° 87° (E) 2,057 5.9 -38.3°
Drops below altitude 10° 04:09:06 10° 117° (ESE) 2,300 6.0 -37.9°
Sets 04:12:38 0° 143° (SE) 3,219 6.6 -37.3°
